This is the latest recevied weather packets stored in our database for station/object KB0Y. If no packets are shown the sender has not sent any weather packets the latest 10 day(s).
| Time | Temp. | Humidity | Pressure | Rain* | Wind** | Luminosity | Snow |
|---|---|---|---|---|---|---|---|
| 1778091635 | 29.44° C | 61% | 1020.3 hPa | 0 mm | - | 575 W/m² | - |
| 1778091333 | 29.44° C | 60% | 1020 hPa | 0 mm | - | 575 W/m² | - |
| 1778091030 | 29.44° C | 61% | 1020.3 hPa | 0 mm | - | 601 W/m² | - |
| 1778090726 | 29.44° C | 61% | 1020.3 hPa | 0 mm | - | 597 W/m² | - |
| 1778090423 | 28.89° C | 63% | 1020.3 hPa | 0 mm | - | 541 W/m² | - |
| 1778090120 | 28.89° C | 64% | 1020.3 hPa | 0 mm | - | 583 W/m² | - |
| 1778089816 | 30° C | 64% | 1020.6 hPa | 0 mm | - | 581 W/m² | - |
| 1778089515 | 30° C | 65% | 1020.3 hPa | 0 mm | - | 606 W/m² | - |
| 1778089210 | 30° C | 62% | 1020.6 hPa | 0 mm | - | 601 W/m² | - |
| 1778088908 | 30° C | 63% | 1021 hPa | 0 mm | - | 595 W/m² | - |
| 1778088605 | 29.44° C | 63% | 1020.6 hPa | 0 mm | - | 588 W/m² | - |
| 1778088302 | 29.44° C | 63% | 1021 hPa | 0 mm | - | 582 W/m² | - |
| 1778087998 | 29.44° C | 64% | 1021 hPa | 0 mm | - | 469 W/m² | - |
| 1778087696 | 28.89° C | 62% | 1021 hPa | 0 mm | - | 601 W/m² | - |
| 1778087393 | 28.89° C | 66% | 1021 hPa | 0 mm | - | 549 W/m² | - |
| 1778087089 | 28.89° C | 66% | 1021 hPa | 0 mm | - | 516 W/m² | - |
| 1778086783 | 28.89° C | 67% | 1021 hPa | 0 mm | - | 587 W/m² | - |
| 1778086481 | 28.89° C | 66% | 1021 hPa | 0 mm | - | 601 W/m² | - |
| 1778086177 | 28.89° C | 68% | 1021 hPa | 0 mm | - | 619 W/m² | - |
| 1778085873 | 28.33° C | 68% | 1021.3 hPa | 0 mm | - | 609 W/m² | - |
| 1778085565 | 28.33° C | 71% | 1021.3 hPa | 0 mm | - | 256 W/m² | - |
| 1778085260 | 28.33° C | 68% | 1021.6 hPa | 0 mm | - | 219 W/m² | - |
| 1778084955 | 28.33° C | 71% | 1021.3 hPa | 0 mm | - | 662 W/m² | - |
| 1778084653 | 28.33° C | 69% | 1021 hPa | 0 mm | - | 563 W/m² | - |
| 1778084345 | 28.33° C | 69% | 1021.3 hPa | 0 mm | - | 562 W/m² | - |
* Rain latest hour (hover to see other rain measurements)
** Current wind speed in m/s (hover to see current wind gust speed)